HST,Max TemperatureF,Mean TemperatureF,Min TemperatureF,Max Dew PointF,MeanDew PointF,Min DewpointF,Max Humidity, Mean Humidity, Min Humidity, Max Sea Level PressureIn, Mean Sea Level PressureIn, Min Sea Level PressureIn, Max VisibilityMiles, Mean VisibilityMiles, Min VisibilityMiles, Max Wind SpeedMPH, Mean Wind SpeedMPH, Max Gust SpeedMPH,PrecipitationIn, CloudCover, Events, WindDirDegrees
2013-3-1,80,74,68,60,56,54,66,54,42,30.19,30.15,30.11,10,10,10,18,10,27,T,6,Rain,20
2013-3-2,79,74,68,64,59,54,84,67,49,30.21,30.15,30.09,10,10,4,22,8,26,0.05,6,Rain,19
2013-3-3,79,72,64,62,59,55,87,66,45,30.20,30.16,30.11,10,10,5,20,8,24,0.05,7,Rain,31
2013-3-4,79,73,66,62,58,54,73,58,42,30.21,30.16,30.11,10,10,10,15,8,,0.00,6,,33
2013-3-5,79,72,65,63,60,56,87,68,48,30.17,30.13,30.05,10,10,8,14,7,17,0.13,5,Rain,313
2013-3-6,78,63,48,66,62,57,100,80,60,30.17,30.12,30.06,10,9,1,14,5,17,0.39,7,Rain,236
2013-3-7,82,72,61,63,60,53,93,70,47,30.11,30.06,29.99,10,10,10,16,7,22,0.02,4,,195
2013-3-8,79,72,64,64,62,59,93,74,54,30.05,29.98,29.89,10,10,4,21,8,26,0.06,6,Rain,175
2013-3-9,83,73,63,62,59,53,84,66,47,29.98,29.93,29.86,10,10,10,23,9,30,0.00,2,,163
2013-3-10,78,71,64,69,61,52,73,64,54,30.03,29.94,29.88,10,10,10,20,8,27,0.00,4,,301
2013-3-11,77,71,64,70,64,53,74,66,57,30.06,30.01,29.96,10,8,2,14,7,17,0.08,6,Rain,348
2013-3-12,75,71,67,68,66,62,93,83,73,30.09,30.03,29.98,10,10,7,10,3,13,0.00,8,,356
2013-3-13,74,71,67,67,65,61,97,88,79,30.10,30.05,30.00,10,9,2,14,5,17,0.22,7,Rain,254
2013-3-14,79,72,64,68,63,58,93,76,58,30.09,30.03,29.98,10,10,6,15,7,18,T,6,Rain,191
2013-3-15,79,72,65,68,64,60,90,76,62,29.99,29.95,29.90,10,10,6,9,3,12,0.02,7,Rain,125
2013-3-16,73,71,68,66,64,59,90,82,73,30.02,29.94,29.89,10,10,9,18,7,24,T,8,Rain,338
2013-3-17,71,69,66,62,60,56,87,74,61,30.04,30.00,29.96,10,10,10,13,5,16,T,8,,279
2013-3-18,75,70,64,65,61,59,87,73,58,30.05,30.01,29.95,10,10,4,12,5,,0.00,7,Rain,313
2013-3-19,77,70,62,67,62,52,90,72,54,30.05,30.00,29.97,10,10,4,14,5,20,0.11,5,Rain,213
2013-3-20,81,72,62,68,64,54,93,76,58,30.09,30.04,29.98,10,9,2,15,6,19,0.14,5,Rain,182
2013-3-21,84,74,64,67,65,61,87,71,55,30.11,30.05,29.99,10,10,7,22,9,27,0.02,4,Rain,176
2013-3-22,81,72,63,66,63,55,81,70,58,30.06,30.00,29.93,10,10,10,20,7,24,0.00,7,,157
2013-3-23,81,73,65,65,63,61,87,69,51,30.03,29.99,29.94,10,10,10,13,5,16,0.00,5,,153
2013-3-24,79,73,66,68,64,57,81,72,62,30.04,30.00,29.94,10,10,7,14,6,17,0.00,7,Rain,188
2013-3-25,77,71,65,69,66,62,93,79,64,30.06,30.00,29.94,10,9,2,12,6,14,0.17,8,Rain,195
2013-3-26,82,75,68,65,64,63,84,69,54,30.06,30.01,29.96,10,10,10,14,6,19,T,6,Rain,160
2013-3-27,79,73,67,65,62,58,84,72,60,30.06,30.01,29.94,10,9,2,13,5,18,T,7,Rain,232
2013-3-28,79,72,64,65,63,59,93,77,60,30.07,30.02,29.97,10,10,2,16,7,20,0.02,6,Rain,290
2013-3-29,78,71,64,68,64,60,93,79,64,30.07,30.03,29.97,10,9,2,15,6,20,0.14,7,Rain,203
2013-3-30,75,71,67,68,66,64,93,86,79,30.06,30.01,29.97,10,9,2,14,4,16,0.85,8,Rain,120
2013-3-31,76,70,63,64,59,57,93,74,54,30.04,29.99,29.94,10,10,10,21,9,30,0.00,6,,328